Simultaneous Nadir Overpasses (SNOs) Predictions

Prediction of SNOs between METOP-B and TERRA Satellite Orbit:

Table of predicted SNOs for the next 14.0 days since TLE Epoch: 12/29/2018
Index Date (METOP-B) Time (METOP-B) Lat,Lon (METOP-B) SZA (METOP-B ) Date (TERRA) Time (TERRA) Lat,Lon (TERRA) SZA (TERRA ) Distance(km) Time Diff (sec)
1 12/29/2018 22:37:59 -81.28, 67.35 73.01 12/29/2018 22:38:54 -81.29, 67.35 72.99 0.66 55
2 12/29/2018 23:28:39 81.28,-125.01 107.03 12/29/2018 23:28:20 81.29,-124.85 107.04 2.84 19
3 01/01/2019 18:12:23 -81.28, 133.70 73.26 01/01/2019 18:13:09 -81.27, 133.52 73.26 3.08 46
4 01/01/2019 19:03:03 81.28, -58.70 106.77 01/01/2019 19:02:35 81.28, -58.71 106.76 0.49 28
5 01/04/2019 13:46:48 -81.28,-159.96 73.57 01/04/2019 13:47:24 -81.28,-159.92 73.55 0.62 36
6 01/04/2019 14:37:27 81.29, 7.99 106.51 01/04/2019 14:36:50 81.28, 7.82 106.47 2.88 37
7 01/07/2019 09:21:12 -81.28, -93.24 73.89 01/07/2019 09:21:39 -81.28, -93.37 73.89 2.19 27
8 01/07/2019 10:11:52 81.28, 74.28 106.13 01/07/2019 10:11:05 81.29, 74.35 106.12 1.25 47
9 01/10/2019 04:55:36 -81.28, -26.92 74.31 01/10/2019 04:55:53 -81.29, -26.81 74.28 2.09 17




NCC Satellite Simultaneous Nadir Overpasses (SNOs) Prediction Service
